User: anonymous   Login
Location: Newark
(39.6867°N, 100.6772°W)
Time: 23:32:52
(UTC+00:00)
Language:

Transit 4A - Orbit

View from above orbital plane
View from above orbital plane
View from above satellite
View from above satellite

Ground track
Ground track

The orbit data is extracted from the following two-line orbital elements,

1   116U 61015A   19294.95952881 -.00000047  00000-0  22761-4 0  9997
2   116  66.8098  73.6676 0076012 181.8196 178.2619 13.91760140958987
Epoch (UTC): 21 October 2019 23:01:43
Eccentricity: 0.0076012
inclination: 66.8098°
perigee height: 867 km
apogee height: 978 km
right ascension of ascending node: 73.6676°
argument of perigee: 181.8196°
revolutions per day: 13.91760140
mean anomaly at epoch: 178.2619°
orbit number at epoch: 95898

The dashed part of the orbit path shows where the satellite is in the earth's shadow,  

DLR